Regional Weather Roundup
Issued by NWS

Home | Current Version | Previous Version | Graphics & Text | Print | Product List | Glossary On
Versions: 1 2 3 4 5 6 7 8 9 10 11 12 13 14 15 16 17 18 19 20 21 22 23 24 25 26 27 28 29 30 31 32 33 34 35 36 37 38 39 40 41 42 43 44 45 46 47 48 49 50
000
ASUS43 KDMX 051307
RWRIA

WEATHER ROUNDUP FOR IOWA
NATIONAL WEATHER SERVICE DES MOINES IA
800 AM CDT SUN JUL 05 2015

NOTE: "FAIR" INDICATES FEW OR NO CLOUDS BELOW 12,000 FEET WITH NO
SIGNIFICANT WEATHER AND/OR OBSTRUCTIONS TO VISIBILITY.

* - THESE STATIONS ARE NOT NWS STATIONS...THUS NOT UNDER NWS
QUALITY CONTROL.  THEY ALSO DO NOT REPORT WEATHER SUCH
AS PRECIPITATION OR FOG.

IAZ001>003-012>014-020>022-031>034-043>046-051400-
   NORTHWEST IOWA

CITY           SKY/WX    TMP DP  RH WIND       PRES   REMARKS
CARROLL *      SUNNY     68  64  88 S9        29.97R
CHEROKEE *     CLOUDY    66  64  94 SE3       29.95R
DENISON *      SUNNY     68  63  83 S10       29.94F
LE MARS *      MOSUNNY   68  64  88 S10       29.95S
ORANGE CITY *  LGT RAIN  66  63  88 S5        29.94S
SHELDON *      PTSUNNY   66  66 100 S8        29.93S
SIOUX CITY     CLOUDY    68  63  84 NW3       29.96R
SPENCER        CLOUDY    66  60  81 S8        29.95R
STORM LAKE *   SUNNY     64  63  94 S9        29.97R
$$

IAZ055>058-069>071-079>083-090>094-051400-
   SOUTHWEST IOWA

CITY           SKY/WX    TMP DP  RH WIND       PRES   REMARKS
ATLANTIC *     SUNNY     70  64  83 S7        29.98R
AUDUBON *      SUNNY     68  63  83 S6        29.99R
CLARINDA *     SUNNY     70  66  88 S5        30.00R
COUNCIL BLFS * SUNNY     66  64  94 SE10      29.95F FOG
CRESTON *      SUNNY     70  64  83 S12       30.01R
HARLAN  *      SUNNY     68  68 100 S7        30.00S
LAMONI         MOSUNNY   69  65  86 S6        30.01R
RED OAK *      SUNNY     70  66  88 S7        29.98R
SHENANDOAH *   MOSUNNY   70  66  88 SE7       29.97R
$$

IAZ047>049-059>061-072>074-084-051400-
   CENTRAL IOWA

CITY           SKY/WX    TMP DP  RH WIND       PRES   REMARKS
AMES           MOSUNNY   66  63  90 SE5       30.00R
ANKENY *       SUNNY     70  66  88 S6        30.00R
CHARITON *     SUNNY     70  64  83 S9        30.01R
DES MOINES     CLOUDY    69  62  78 S8        29.99R
GRINNELL*      SUNNY     68  63  83 S8        30.03R
KNOXVILLE *    SUNNY     68  63  83 S7        30.00R
MARSHALLTOWN   SUNNY     68  63  84 SE6       30.01R
PELLA *        SUNNY     68  66  94 S6        30.02S
PERRY *          N/A     66  64  94 S3        30.00R
$$

IAZ004>006-015-016-023>025-035-036-051400-
   NORTH CENTRAL IOWA

CITY           SKY/WX    TMP DP  RH WIND       PRES   REMARKS
ALGONA *       SUNNY     68  63  83 S12       29.97S
CLARION *      SUNNY     68  63  83 S10       29.98F
ESTHERVILLE    CLOUDY    63  61  93 S10       29.95S
FORT DODGE *   PTSUNNY   70  61  73 S8        29.99S
MASON CITY     MOSUNNY   66  62  87 S7        30.02R
FOREST CITY *  SUNNY     64  63  94 SE6       29.99F
IOWA FALLS *     N/A     66  63  88 S7        30.02S
$$

IAZ007>011-017>019-026>030-037>042-050>054-066-051400-
   NORTHEAST IOWA

CITY           SKY/WX    TMP DP  RH WIND       PRES   REMARKS
CEDAR RAPIDS   SUNNY     67  65  93 S6        30.03R FOG
CHARLES CITY * SUNNY     66  64  94 S8        30.03R
CLINTON *      SUNNY     66  63  88 SE6       30.09S
DECORAH *        N/A    N/A N/A N/A MISG        N/A
DUBUQUE        SUNNY     67  62  84 S6        30.05S HAZE
MONTICELLO *   SUNNY     68  68 100 CALM      30.05R FOG
OELWEIN *        N/A     66  63  88 S6        30.04S
WATERLOO       SUNNY     68  63  84 S7        30.02R
$$

IAZ064-065-067-068-078-051400-
   EAST CENTRAL IOWA

CITY           SKY/WX    TMP DP  RH WIND       PRES   REMARKS
DAVENPORT      SUNNY     68  64  87 S5        30.06S
IOWA CITY      SUNNY     66  63  90 CALM      30.05R FOG
MT. PLEASANT * SUNNY     72  64  78 S6        30.04S HAZE
MUSCATINE *    SUNNY     66  63  88 CALM      30.04F
QUAD CITIES    SUNNY     69  63  81 CALM      30.05S HAZE
$$

IAZ062-063-075>077-085>089-095>099-051400-
   SOUTHEAST IOWA

CITY           SKY/WX    TMP DP  RH WIND       PRES   REMARKS
BURLINGTON     SUNNY     69  65  86 S5        30.05R
FAIRFIELD *    SUNNY     68  64  88 S9        30.04R
FORT MADISON * SUNNY     68  64  88 S6        30.05F
KEOKUK *       SUNNY     70  66  88 SE7       30.03F
OSKALOOSA *      N/A     66  64  94 S5        30.02S FOG
CENTERVILLE *  SUNNY     68  64  88 S7        30.03S
OTTUMWA        SUNNY     68  65  90 S8        30.01R FOG
WASHINGTON *   SUNNY     68  66  94 S7        30.05R FOG
$$

ABBREVIATIONS USED IN REMARKS
   TC - TEMPERATURES IN CELSIUS
  WCI - WIND CHILL INDEX
   HX - HEAT INDEX
  VSB - VISIBILITY
$$



USA.gov is the U.S. government's official web portal to all federal, state and local government web resources and services.